NIEUW!!! Volg onze weer- en natuurfoto's op Instagram @ weerstationmaaseik.be

WS Maaseik 1 Meer informatie WS Maaseik 1


WS Maaseik 2 Meer informatie WS Maaseik 2


Regen radar Meer informatie rain snow radar


Bezoek onze andere website:

Vorige versie
weerstation Maaseik


Bezoek ook eens deze sites:

Weerstation Geleen



Het weer levert geen direct gevaar op.    Er zijn geen waarschuwingen afgegeven.

15 daagse weersverwachting Borlänge (SE)

  • Overzicht
  • Per uur
  • 15 dagen
  • Extra
  • Vergelijk
  • Kaarten
  • Dagkaart
  • Meer »
  • Info
  • Statistieken
  • Directe link
    Temp 6h Neerslag Wind  
 09:00     14:47    Daglengte: 5:47 Vandaag
19:00
0.4 mm
2
warningclass
 09:02     14:47    Daglengte: 5:45 Morgen
01:00
2.7 mm
3
warningclass
07:00
5.7 mm
4
warningclass
13:00
6.9 mm
3
19:00
6.7 mm
3
warningclass
 09:03     14:46    Daglengte: 5:43 Zondag 15 Dec
01:00
8.9 mm
2
07:00
4.0 mm
2
13:00
3.1 mm
2
warningclass
19:00
2.1 mm
2
warningclass
 09:04     14:46    Daglengte: 5:42 Maandag 16 Dec
01:00
-0°
 
1
07:00
 
2
Locatie info
Region: Dalarnas län
Latitude: 60.4838°N
Longitude: 15.4344°E
124 masl
Postcode: 784 34
Temp/Neerslag /Baro Onweer/DauwpuntSneeuw
    Temp Baro 1h Neerslag Dauwpunt Wind UV BewolkingSneeuw  
 09:00     14:47    Daglengte: 5:47 Vandaag
15:00
Voelt als: -1.8°
994.4 hPa
49%
0.1°
2
Windvlaag: 4.1 m/s
91%6 cm
16:00
Voelt als: -1.8°
994.4 hPa 0.2 mm
82%
0.2°
2
Windvlaag: 4 m/s
91%6 cm warningclass
17:00
Voelt als: -1.8°
994.1 hPa 0.2 mm
74%
0.3°
2
Windvlaag: 4.1 m/s
91%6 cm warningclass
18:00
Voelt als: -1.9°
994.0 hPa
68%
0.5°
2
Windvlaag: 4.5 m/s
91%6 cm
19:00
Voelt als: -2.0°
993.5 hPa
79%
0.6°
2
Windvlaag: 4.4 m/s
91%6 cm
20:00
Voelt als: -2.7°
993.2 hPa 0.3 mm
82%
0.5°
3
Windvlaag: 5.2 m/s
91%6 cm warningclass
21:00
Voelt als: -3.0°
992.8 hPa 0.3 mm
82%
0.3°
3
Windvlaag: 5.4 m/s
91%6 cm warningclass
22:00
Voelt als: -2.9°
992.2 hPa 0.5 mm
82%
0.3°
3
Windvlaag: 5.3 m/s
90%6 cm warningclass
23:00
Voelt als: -3.0°
991.7 hPa 0.6 mm
82%
0.3°
3
Windvlaag: 5.1 m/s
91%7 cm warningclass
 09:02     14:47    Daglengte: 5:45 Morgen
00:00
Voelt als: -3.1°
991.1 hPa 0.5 mm
82%
0.4°
3
Windvlaag: 5.2 m/s
91%7 cm warningclass
01:00
Voelt als: -3.1°
990.5 hPa 0.5 mm
82%
0.4°
3
Windvlaag: 5.4 m/s
91%7 cm warningclass
02:00
Voelt als: -3.1°
989.9 hPa 0.5 mm
82%
0.4°
3
Windvlaag: 5.4 m/s
91%7 cm warningclass
03:00
Voelt als: -3.4°
989.2 hPa 0.9 mm
82%
0.3°
4
Windvlaag: 5.8 m/s
91%7 cm warningclass
04:00
Voelt als: -3.6°
988.4 hPa 1.1 mm
82%
0.3°
4
Windvlaag: 6 m/s
91%8 cm warningclass
05:00
Voelt als: -3.6°
987.9 hPa 1.2 mm
82%
0.2°
4
Windvlaag: 6.5 m/s
91%8 cm warningclass
06:00
Voelt als: -3.6°
987.4 hPa 1.0 mm
82%
0.2°
4
Windvlaag: 6.8 m/s
91%8 cm warningclass
07:00
Voelt als: -3.6°
987.0 hPa 1.0 mm
82%
0.2°
4
Windvlaag: 6.6 m/s
91%8 cm warningclass
08:00
Voelt als: -3.3°
986.9 hPa 1.1 mm
82%
0.2°
4
Windvlaag: 6.4 m/s
85%8 cm warningclass
09:00
Voelt als: -3.2°
986.9 hPa 1.3 mm
82%
0.4°
4
Windvlaag: 5.7 m/s
91%8 cm warningclass
10:00
Voelt als: -2.9°
986.8 hPa 1.1 mm
82%
0.4°
3
Windvlaag: 6 m/s
89%8 cm warningclass
11:00
Voelt als: -2.7°
986.3 hPa 1.0 mm
82%
0.4°
3
Windvlaag: 6 m/s
90%8 cm warningclass
12:00
Voelt als: -2.7°
985.8 hPa 0.9 mm
82%
0.8°
4
Windvlaag: 5.8 m/s
86%8 cm warningclass
13:00
Voelt als: -2.1°
985.5 hPa 1.4 mm
82%
0.8°
3
Windvlaag: 5.6 m/s
82%8 cm
14:00
Voelt als: -2.3°
985.2 hPa 1.4 mm
82%
0.8°
3
Windvlaag: 6.4 m/s
82%8 cm
15:00
Voelt als: -1.8°
985.3 hPa
82%
1.1°
3
Windvlaag: 6.1 m/s
87%8 cm
16:00
Voelt als: -1.8°
985.1 hPa 1.2 mm
82%
1.2°
3
Windvlaag: 6.1 m/s
90%8 cm
17:00
Voelt als: -1.9°
984.9 hPa 1.3 mm
82%
1.1°
3
Windvlaag: 5.8 m/s
90%8 cm
18:00
Voelt als: -2.0°
984.5 hPa 1.6 mm
79%
0.9°
3
Windvlaag: 5.5 m/s
89%8 cm warningclass
19:00
Voelt als: -2.2°
984.2 hPa 1.2 mm
82%
0.8°
3
Windvlaag: 5.2 m/s
91%8 cm warningclass
20:00
Voelt als: -1.9°
983.9 hPa 1.2 mm
82%
0.8°
3
Windvlaag: 5 m/s
91%8 cm warningclass
21:00
Voelt als: -1.9°
983.8 hPa 1.5 mm
82%
0.8°
3
Windvlaag: 5.1 m/s
91%9 cm warningclass
22:00
Voelt als: -1.9°
983.7 hPa 1.4 mm
82%
0.8°
3
Windvlaag: 4.9 m/s
91%9 cm warningclass
23:00
Voelt als: -1.5°
983.6 hPa 1.6 mm
82%
1.0°
2
Windvlaag: 4.4 m/s
91%9 cm warningclass
 09:03     14:46    Daglengte: 5:43 Zondag 15 Dec
00:00
Voelt als: -1.2°
983.6 hPa 1.6 mm
82%
1.0°
2
Windvlaag: 3.9 m/s
90%9 cm
01:00
Voelt als: -1.2°
983.4 hPa 1.6 mm
82%
1.2°
2
Windvlaag: 4.3 m/s
91%9 cm
02:00
Voelt als: -1.4°
983.6 hPa 1.9 mm
82%
1.0°
2
Windvlaag: 4.4 m/s
90%9 cm
03:00
Voelt als: -1.3°
983.7 hPa
77%
1.1°
2
Windvlaag: 4.6 m/s
91%9 cm
04:00
Voelt als: -1.6°
983.8 hPa 2.1 mm
35%
1.0°
3
Windvlaag: 4.4 m/s
91%9 cm
05:00
Voelt als: -1.5°
983.9 hPa
64%
1.0°
2
Windvlaag: 4.4 m/s
91%9 cm
06:00
Voelt als: -1.2°
984.1 hPa
77%
1.0°
2
Windvlaag: 4 m/s
91%9 cm
07:00
Voelt als: -0.9°
984.3 hPa
81%
1.0°
2
Windvlaag: 3.4 m/s
90%9 cm
08:00
Voelt als: -0.6°
984.6 hPa
81%
1.0°
2
Windvlaag: 2.9 m/s
91%9 cm
09:00
Voelt als: -0.8°
984.9 hPa
64%
0.9°
2
Windvlaag: 3.3 m/s
91%9 cm
10:00
Voelt als: -0.8°
985.6 hPa
34%
0.7°
2
Windvlaag: 3.2 m/s
100%9 cm
11:00
Voelt als: -0.8°
985.8 hPa
40%
0.6°
2
Windvlaag: 3.2 m/s
100%9 cm
12:00
Voelt als: -1.1°
985.8 hPa 1.5 mm
99%
0.5°
2
Windvlaag: 2.9 m/s
100%9 cm warningclass
13:00
Voelt als: -1.2°
985.9 hPa 1.6 mm
100%
0.4°
2
Windvlaag: 2.9 m/s
100%9 cm warningclass
14:00
Voelt als: -1.2°
986.0 hPa 2.1 mm
100%
0.4°
2
Windvlaag: 3 m/s
100%9 cm warningclass
15:00
Voelt als: -1.2°
986.3 hPa
99%
0.4°
2
Windvlaag: 3.5 m/s
100%8 cm
16:00
Voelt als: -0.8°
986.5 hPa
89%
0.4°
2
Windvlaag: 3.4 m/s
96%8 cm
17:00
Voelt als: -1.1°
986.6 hPa
100%
0.3°
2
Windvlaag: 3.5 m/s
100%8 cm
18:00
Voelt als: -1.3°
986.8 hPa
100%
0.2°
2
Windvlaag: 3.6 m/s
97%8 cm
19:00
Voelt als: -1.9°
987.2 hPa
94%
-0.2°
2
Windvlaag: 3.6 m/s
99%9 cm
20:00
Voelt als: -1.4°
987.9 hPa
86%
-0.4°
1
Windvlaag: 3.7 m/s
97%9 cm
21:00
Voelt als: -0.9°
988.6 hPa
50%
-0.4°
1
Windvlaag: 2.7 m/s
98%9 cm
22:00
Voelt als: -1.7°
989.3 hPa
77%
-0.4°
2
Windvlaag: 2.6 m/s
100%9 cm
23:00
Voelt als: -1.7°
989.9 hPa
26%
-0.6°
2
Windvlaag: 2.7 m/s
100%9 cm
 09:04     14:46    Daglengte: 5:42 Maandag 16 Dec
00:00
Voelt als: -1.0°
990.5 hPa
35%
-0.8°
1
Windvlaag: 2.5 m/s
97%9 cm
01:00
-0°
Voelt als: -1.3°
991.1 hPa
96%
-1.1°
1
Windvlaag: 1.9 m/s
99%9 cm
02:00
Voelt als: -1.5°
991.6 hPa
100%
-0.7°
1
Windvlaag: 2 m/s
99%9 cm
03:00
Voelt als: -1.8°
992.0 hPa
86%
-0.6°
2
Windvlaag: 2.5 m/s
98%9 cm
04:00
Voelt als: -1.6°
992.3 hPa
41%
-0.2°
2
Windvlaag: 2.9 m/s
97%9 cm
05:00
Voelt als: -1.9°
992.7 hPa
41%
-0.3°
2
Windvlaag: 3.1 m/s
96%9 cm
06:00
Voelt als: -1.9°
993.1 hPa
26%
-0.1°
2
Windvlaag: 3.6 m/s
90%9 cm
07:00
Voelt als: -2.1°
993.4 hPa
27%
0.0°
2
Windvlaag: 2.4 m/s
95%9 cm
08:00
Voelt als: -1.8°
993.8 hPa
45%
0.2°
2
Windvlaag: 8.1 m/s
94%9 cm
09:00
Voelt als: -2.1°
994.2 hPa
94%
-0.1°
2
Windvlaag: 10.2 m/s
99%9 cm
10:00
Voelt als: -2.2°
994.6 hPa
24%
-0.2°
2
Windvlaag: 10.5 m/s
97%9 cm
11:00
Voelt als: -2.1°
995.0 hPa
21%
-0.1°
2
Windvlaag: 9.3 m/s
96%9 cm
12:00
Voelt als: -2.1°
995.3 hPa
21%
-0.1°
2
Windvlaag: 12.2 m/s
81%9 cm
13:00
Voelt als: -1.8°
995.6 hPa
21%
0.2°
2
Windvlaag: 1.8 m/s
88%9 cm
Temp/Neerslag /Baro Onweer/DauwpuntSneeuw
    Temp Baro Neerslag Dauwpunt Wind BewolkingSneeuw  
 09:00     14:47    Daglengte: 5:47 Vandaag
16:00
Voelt als: -1.8°
994.4 hPa 0.2 mm 0.2°
2
91%6 cm warningclass
19:00
Voelt als: -2.0°
993.5 hPa 0.2 mm 0.6°
2
91%6 cm warningclass
22:00
Voelt als: -2.9°
992.2 hPa 1.1 mm 0.3°
3
90%6 cm warningclass
 09:02     14:47    Daglengte: 5:45 Morgen
01:00
Voelt als: -3.1°
990.5 hPa 1.6 mm 0.4°
3
91%7 cm warningclass
04:00
Voelt als: -3.6°
988.4 hPa 2.6 mm 0.3°
4
91%8 cm warningclass
07:00
Voelt als: -3.6°
987.0 hPa 3.2 mm 0.2°
4
91%8 cm warningclass
10:00
Voelt als: -2.9°
986.8 hPa 3.5 mm 0.4°
3
89%8 cm warningclass
13:00
Voelt als: -2.1°
985.5 hPa 3.4 mm 0.8°
3
82%8 cm
16:00
Voelt als: -1.8°
985.1 hPa 2.6 mm 1.2°
3
90%8 cm
19:00
Voelt als: -2.2°
984.2 hPa 4.1 mm 0.8°
3
91%8 cm warningclass
22:00
Voelt als: -1.9°
983.7 hPa 4.1 mm 0.8°
3
91%9 cm warningclass
 09:03     14:46    Daglengte: 5:43 Zondag 15 Dec
01:00
Voelt als: -1.2°
983.4 hPa 4.7 mm 1.2°
2
91%9 cm
04:00
Voelt als: -1.6°
983.8 hPa 4.0 mm 1.0°
3
91%9 cm
07:00
Voelt als: -0.9°
984.3 hPa   1.0°
2
90%9 cm
10:00
Voelt als: -0.8°
985.6 hPa   0.7°
2
100%9 cm
13:00
Voelt als: -1.2°
985.9 hPa 3.1 mm 0.4°
2
100%9 cm warningclass
16:00
Voelt als: -0.8°
986.5 hPa 2.1 mm 0.4°
2
96%8 cm warningclass
19:00
Voelt als: -1.9°
987.2 hPa   -0.2°
2
99%9 cm
22:00
Voelt als: -1.7°
989.3 hPa   -0.4°
2
100%9 cm
 09:04     14:46    Daglengte: 5:42 Maandag 16 Dec
01:00
-0°
Voelt als: -1.3°
991.1 hPa   -1.1°
1
99%9 cm
04:00
Voelt als: -1.6°
992.3 hPa   -0.2°
2
97%9 cm
07:00
Voelt als: -2.1°
993.4 hPa   0.0°
2
95%9 cm
10:00
Voelt als: -2.2°
994.6 hPa   -0.2°
2
97%9 cm
13:00
Voelt als: -1.8°
995.6 hPa   0.2°
2
88%9 cm
16:00
Voelt als: -0.9°
997.0 hPa 15.9 mm 0.8°
2
91%
19:00
Voelt als: -0.8°
997.8 hPa 15.9 mm 0.8°
2
92%
22:00
Voelt als: -1.3°
999.3 hPa 15.9 mm 0.5°
2
92% warningclass
 09:05     14:46    Daglengte: 5:41 Dinsdag 17 Dec
01:00
Voelt als: -1.8°
1000.6 hPa 15.9 mm 0.1°
2
92% warningclass
04:00
Voelt als: -1.8°
1002.1 hPa 16.6 mm 0.0°
2
91% warningclass
07:00
Voelt als: -1.7°
1003.6 hPa 17.4 mm 0.0°
2
89% warningclass
10:00
Voelt als: -1.4°
1005.0 hPa 17.7 mm 0.2°
2
90% warningclass
13:00
Voelt als: -1.2°
1006.4 hPa 17.7 mm 0.3°
2
91%
16:00
Voelt als: -0.9°
1006.9 hPa 17.7 mm 0.4°
2
91% warningclass
19:00
Voelt als: -0.6°
1007.4 hPa 17.7 mm 0.7°
2
92% warningclass
22:00
Voelt als: -0.4°
1007.8 hPa 17.7 mm 0.2°
1
92% warningclass
 09:06     14:46    Daglengte: 5:40 Woensdag 18 Dec
01:00
Voelt als: 0.1°
1008.1 hPa 17.9 mm -0.1°
1
92% warningclass
04:00
Voelt als: 0.2°
1007.5 hPa 18.1 mm 0.5°
1
92% warningclass
07:00
Voelt als: 0.3°
1006.8 hPa 18.1 mm 1.0°
1
92% warningclass
10:00
Voelt als: -1.0°
1006.0 hPa 18.1 mm 1.0°
2
92%
13:00
Voelt als: -1.5°
1005.1 hPa 18.1 mm 1.1°
3
92%
16:00
Voelt als: -1.0°
1003.6 hPa 18.1 mm 1.5°
3
92%
19:00
Voelt als: -0.4°
1002.1 hPa 18.1 mm 1.9°
2
92%
22:00
Voelt als: 0.6°
1002.2 hPa 18.1 mm 1.5°
2
91%
 09:06     14:47    Daglengte: 5:41 Donderdag 19 Dec
01:00
1002.1 hPa 18.1 mm 1.2°
1
90%
04:00
Voelt als: 0.6°
1003.9 hPa 18.1 mm 0.7°
1
90%
07:00
Voelt als: -0.8°
1005.7 hPa 18.1 mm 0.1°
2
90%
10:00
Voelt als: -1.5°
1008.7 hPa 18.1 mm -0.5°
2
88% warningclass
13:00
Voelt als: -2.0°
1011.6 hPa 18.1 mm -1.0°
2
87% warningclass
16:00
-0°
Voelt als: -2.6°
1012.5 hPa 18.1 mm -1.6°
2
89% warningclass
19:00
-1°
Voelt als: -2.9°
1013.4 hPa 18.1 mm -2.2°
2
91% warningclass
22:00
-1°
Voelt als: -2.7°
1013.8 hPa 18.1 mm -2.2°
1
91% warningclass
 09:07     14:47    Daglengte: 5:40 Vrijdag 20 Dec
01:00
-1°
Voelt als: -2.4°
1014.2 hPa 18.1 mm -2.3°
1
92% warningclass
04:00
-1°
Voelt als: -2.0°
1013.5 hPa 18.1 mm -1.4°
1
92% warningclass
07:00
Voelt als: -1.6°
1012.8 hPa 18.1 mm -0.6°
1
92% warningclass
10:00
Voelt als: -1.2°
1012.2 hPa 18.1 mm -0.1°
2
92% warningclass
13:00
Voelt als: -0.6°
1011.7 hPa 36.3 mm 0.5°
2
92%
19:00
Voelt als: -0.5°
1010.3 hPa 36.3 mm 0.9°
2
92%
 09:08     14:47    Daglengte: 5:39 Zaterdag 21 Dec
01:00
Voelt als: -0.5°
1009.2 hPa 36.3 mm 0.8°
1
92% warningclass
07:00
Voelt als: -0.6°
1005.6 hPa 36.3 mm 1.1°
2
92%
13:00
Voelt als: 0.1°
1004.1 hPa 36.3 mm 1.8°
2
92%
19:00
Voelt als: 0.2°
1003.4 hPa 36.3 mm 1.8°
2
92%
 09:08     14:48    Daglengte: 5:40 Zondag 22 Dec
01:00
Voelt als: 0.4°
1003.0 hPa 36.3 mm 1.3°
1
92%
07:00
Voelt als: 0.3°
1001.6 hPa 36.3 mm 1.8°
2
92%
13:00
Voelt als: 0.8°
1001.6 hPa 36.7 mm 2.2°
2
92%
19:00
Voelt als: 1.2°
998.7 hPa 36.7 mm 2.4°
2
92%
 09:08     14:49    Daglengte: 5:41 Maandag 23 Dec
01:00
-6°
Voelt als: -6.9°
1026.7 hPa 36.7 mm -7.3°
1
1% warningclass
07:00
-6°
Voelt als: -8.8°
1026.0 hPa 36.7 mm -6.8°
1
1% warningclass
13:00
-0°
998.4 hPa 1.3 mm -0.7°
0
78%
19:00
-1°
998.6 hPa 1.0 mm -1.7°
0
74%
 09:09     14:49    Daglengte: 5:40 Dinsdag 24 Dec
01:00
-2°
998.9 hPa 0.9 mm -2.1°
0
79%
07:00
-2°
999.5 hPa 0.6 mm -2.6°
1
78%
13:00
-2°
1001.2 hPa 0.4 mm -2.6°
0
73%
19:00
-3°
1002.3 hPa 0.8 mm -3.1°
0
66%
 09:09     14:50    Daglengte: 5:41 Woensdag 25 Dec
01:00
-3°
1002.7 hPa 0.8 mm -3.3°
1
71%
07:00
-2°
1002.5 hPa   -3.2°
0
75%
13:00
-2°
1002.7 hPa 0.8 mm -2.7°
1
79%
19:00
-3°
Voelt als: -3.8°
1003.5 hPa 0.8 mm -3.4°
1
78%
 09:09     14:51    Daglengte: 5:42 Donderdag 26 Dec
01:00
-3°
Voelt als: -4.7°
1004.8 hPa 0.8 mm -3.7°
1
79%
07:00
-3°
Voelt als: -5.7°
1005.5 hPa 0.8 mm -4.2°
2
80%
13:00
-3°
Voelt als: -5.1°
1007.0 hPa 1.3 mm -4.0°
1
82%
19:00
-4°
Voelt als: -5.3°
1007.1 hPa 0.2 mm -4.4°
1
82%
 09:09     14:52    Daglengte: 5:43 Vrijdag 27 Dec
01:00
-4°
1007.1 hPa 1.0 mm -4.5°
1
81%
07:00
-3°
1006.5 hPa 0.2 mm -4.3°
0
82%
13:00
-3°
Voelt als: -3.0°
1007.2 hPa 0.7 mm -3.7°
0
74%
19:00
-4°
Voelt als: -4.5°
1008.0 hPa 0.7 mm -4.9°
1
64%
 09:09     14:53    Daglengte: 5:44 Zaterdag 28 Dec
01:00
-4°
Voelt als: -5.4°
1009.0 hPa 0.4 mm -5.1°
1
65%
07:00
-5°
Voelt als: -5.0°
1009.1 hPa 0.3 mm -5.5°
0
61%
13:00
-4°
1009.4 hPa 0.4 mm -4.8°
0
60%
  CAPE Lifted Index Hail Supercell Tornado SRH 3km CL BTM PRES CL TOP PRES Swiss DWD icon SMHI TS
 09:00     14:47    Daglengte: 5:47 Vandaag
15:00 2 J/kg 8.8 K 0 % 0 % 0 % 0 m²/s² 0 0 10.21 77
16:00 1 J/kg 8.2 K 0 % 0 % 0 % 0 m²/s² 0 0 9.7 71
17:00 1 J/kg 8.2 K 0 % 0 % 0 % 0 m²/s² 0 0 9.37 71
18:00 0 J/kg 7.5 K 0 % 0 % 0 % 0 m²/s² 0 0 8.01 3
19:00 1 J/kg 7.4 K 0 % 0 % 0 % 0 m²/s² 0 0 7.91 71
20:00 1 J/kg 6.7 K 0 % 0 % 0 % 0 m²/s² 0 0 7.24 71
21:00 1 J/kg 6.3 K 0 % 0 % 0 % 0 m²/s² 0 0 6.84 71
22:00 1 J/kg 6.0 K 0 % 0 % 0 % 0 m²/s² 0 0 6.48 71
23:00 1 J/kg 5.1 K 0 % 0 % 0 % 0 m²/s² 0 0 5.58 77
 09:02     14:47    Daglengte: 5:45 Morgen
00:00 1 J/kg 4.0 K 0 % 0 % 0 % 0 m²/s² 0 0 4.51 77
01:00 1 J/kg 3.7 K 0 % 0 % 0 % 0 m²/s² 0 0 4.18 71
02:00 1 J/kg 3.7 K 0 % 0 % 0 % 0 m²/s² 0 0 4.18 71
03:00 1 J/kg 3.7 K 0 % 0 % 0 % 0 m²/s² 0 0 4.12 71
04:00 1 J/kg 4.4 K 0 % 0 % 0 % 0 m²/s² 0 0 4.88 71
05:00 1 J/kg 3.9 K 0 % 0 % 0 % 0 m²/s² 0 0 4.47 71
06:00 1 J/kg 2.3 K 0 % 0 % 0 % 0 m²/s² 0 0 2.75 71
07:00 1 J/kg 0.7 K 0 % 0 % 0 % 0 m²/s² 0 0 1.27 71
08:00 1 J/kg 0.5 K 0 % 0 % 0 % 0 m²/s² 0 0 1.46 77
09:00 4 J/kg 0.9 K 0 % 0 % 0 % 0 m²/s² 0 0 1.86 85
10:00 13 J/kg 1.9 K 0 % 0 % 0 % 0 m²/s² 0 0 3.4 71
11:00 27 J/kg 2.6 K 0 % 0 % 0 % 0 m²/s² 0 0 5.03 71
12:00 23 J/kg 4.5 K 0 % 0 % 0 % 0 m²/s² 0 0 7.86 77
13:00 14 J/kg 6.6 K 0 % 0 % 0 % 0 m²/s² 0 0 10.83 61
14:00 13 J/kg 7.6 K 0 % 0 % 0 % 0 m²/s² 0 0 10.18 51
15:00 4 J/kg 6.6 K 0 % 0 % 0 % 0 m²/s² 0 0 8.13 3
16:00 0 J/kg 5.9 K 0 % 0 % 0 % 0 m²/s² 0 0 6.38 80
17:00 2 J/kg 5.4 K 0 % 0 % 0 % 0 m²/s² 0 0 5.88 85
18:00 4 J/kg 4.9 K 0 % 0 % 0 % 0 m²/s² 0 0 5.38 3
19:00 3 J/kg 5.1 K 0 % 0 % 0 % 0 m²/s² 0 0 5.61 71
20:00 2 J/kg 5.1 K 0 % 0 % 0 % 0 m²/s² 0 0 5.61 71
21:00 3 J/kg 4.9 K 0 % 0 % 0 % 0 m²/s² 0 0 5.41 71
22:00 2 J/kg 4.4 K 0 % 0 % 0 % 0 m²/s² 0 0 4.88 71
23:00 1 J/kg 4.1 K 0 % 0 % 0 % 0 m²/s² 0 0 4.61 71
 09:03     14:46    Daglengte: 5:43 Zondag 15 Dec
00:00 1 J/kg 3.4 K 0 % 0 % 0 % 0 m²/s² 0 0 3.88 71
01:00 1 J/kg 2.4 K 0 % 0 % 0 % 0 m²/s² 0 0 2.91 61
02:00 1 J/kg 1.6 K 0 % 0 % 0 % 0 m²/s² 0 0 2.44 53
03:00 1 J/kg 1.4 K 0 % 0 % 0 % 0 m²/s² 0 0 2.69 3
04:00 1 J/kg 1.2 K 0 % 0 % 0 % 0 m²/s² 0 0 2.13 3
05:00 1 J/kg 0.9 K 0 % 0 % 0 % 0 m²/s² 0 0 2.19 3
06:00 1 J/kg 0.7 K 0 % 0 % 0 % 0 m²/s² 0 0 2.65 3
07:00 3 J/kg 0.1 K 0 % 0 % 0 % 0 m²/s² 0 0 2.71 3
08:00 1 J/kg 0.4 K 0 % 0 % 0 % 0 m²/s² 0 0 4.57 71
09:00 5 J/kg 0.8 K 0 % 0 % 0 % 0 m²/s² 0 0 2.81 3
10:00 6 J/kg 1.3 K 0 % 0 % 0 % 0 m²/s² 0 0 3.07 3
11:00 4 J/kg 2.2 K 0 % 0 % 0 % 0 m²/s² 0 0 4.39 3
12:00 5 J/kg 3.1 K 0 % 0 % 0 % 0 m²/s² 0 0 5.74 71
13:00 5 J/kg 3.2 K 0 % 0 % 0 % 0 m²/s² 0 0 6.17 77
14:00 6 J/kg 3.1 K 0 % 0 % 0 % 0 m²/s² 0 0 6.85 77
15:00 2 J/kg 3.8 K 0 % 0 % 0 % 0 m²/s² 0 0 7.88 77
16:00 4 J/kg 4.6 K 0 % 0 % 0 % 0 m²/s² 0 0 5.65 77
17:00 28 J/kg 5.2 K 0 % 0 % 0 % 0 m²/s² 0 0 5.77 71
18:00 21 J/kg 5.6 K 0 % 0 % 0 % 0 m²/s² 0 0 6.29 71
19:00 10 J/kg 5.5 K 0 % 0 % 0 % 0 m²/s² 0 0 6.07 71
20:00 5 J/kg 4.8 K 0 % 0 % 0 % 0 m²/s² 0 0 5.46 45
21:00 1 J/kg 4.0 K 0 % 0 % 0 % 0 m²/s² 0 0 4.78 45
22:00 1 J/kg 3.8 K 0 % 0 % 0 % 0 m²/s² 0 0 4.67 45
23:00 0 J/kg 3.3 K 0 % 0 % 0 % 0 m²/s² 0 0 3.99 45
 09:04     14:46    Daglengte: 5:42 Maandag 16 Dec
00:00 0 J/kg 2.8 K 0 % 0 % 0 % 0 m²/s² 0 0 3.88 45
01:00 1 J/kg 2.6 K 0 % 0 % 0 % 0 m²/s² 0 0 3.59 45
02:00 2 J/kg 2.7 K 0 % 0 % 0 % 0 m²/s² 0 0 3.39 45
03:00 0 J/kg 3.2 K 0 % 0 % 0 % 0 m²/s² 0 0 3.98 45
04:00 0 J/kg 3.4 K 0 % 0 % 0 % 0 m²/s² 0 0 4.27 45
05:00 0 J/kg 3.3 K 0 % 0 % 0 % 0 m²/s² 0 0 4.62 45
06:00 0 J/kg 3.0 K 0 % 0 % 0 % 0 m²/s² 0 0 4.65 45
07:00 1 J/kg 2.4 K 0 % 0 % 0 % 0 m²/s² 0 0 4.38 45
08:00 7 J/kg 2.0 K 0 % 0 % 0 % 0 m²/s² 0 0 4.19 3
09:00 1 J/kg 2.0 K 0 % 0 % 0 % 0 m²/s² 0 0 2.96 3
10:00 1 J/kg 2.4 K 0 % 0 % 0 % 0 m²/s² 0 0 5.13 3
11:00 2 J/kg 3.3 K 0 % 0 % 0 % 0 m²/s² 0 0 7.68 3
12:00 0 J/kg 3.3 K 0 % 0 % 0 % 0 m²/s² 0 0 7.56 3
13:00 0 J/kg 2.7 K 0 % 0 % 0 % 0 m²/s² 0 0 7.29 3
Temp Baro Wind Neerslag
  EWN Forecast EWN WRFDA DWD ICON FMI HIRLAM MET Norway GFS
 09:00     14:47    Daglengte: 5:47 Vandaag
16:00 0.5° 994.4 hPa 2.0 m/s 0.2 mm 0.8° 992.1 hPa 3.3 m/s 0.5 mm 0.1° 994.4 hPa 1.3 m/s -1.6 mm 1.0° 994.1 hPa 1.7 m/s 0.0 mm 0.6° 994.6 hPa 2.4 m/s 1.0° 994.0 hPa 2.1 m/s
19:00 0.9° 993.5 hPa 2.5 m/s 0.2 mm 1.2° 990.9 hPa 3.7 m/s 1.0 mm 0.3° 993.5 hPa 1.6 m/s 0.2 mm 1.4° 993.0 hPa 2.3 m/s 0.0 mm 0.9° 994.2 hPa 3.0 m/s 1.3° 993.6 hPa 3.2 m/s
22:00 0.5° 992.2 hPa 3.0 m/s 1.1 mm 1.2° 989.6 hPa 4.2 m/s 2.1 mm 0.2° 992.4 hPa 2.3 m/s 1.0 mm 0.9° 991.2 hPa 2.1 m/s 0.0 mm 0.5° 993.0 hPa 3.2 m/s 1.1° 992.2 hPa 2.3 m/s
 09:02     14:47    Daglengte: 5:45 Morgen
01:00 0.6° 990.5 hPa 3.4 m/s 1.6 mm 1.7° 988.0 hPa 5.3 m/s 4.4 mm 0.2° 990.8 hPa 2.5 m/s 1.4 mm 1.1° 989.2 hPa 2.5 m/s 0.0 mm 0.5° 991.4 hPa 3.4 m/s 1.7° 991.0 hPa 4.1 m/s
04:00 0.5° 988.4 hPa 3.9 m/s 2.6 mm 1.3° 985.2 hPa 5.7 m/s 8.5 mm 0.2° 988.7 hPa 3.4 m/s 1.4 mm 1.3° 987.6 hPa 3.0 m/s 0.0 mm 0.4° 989.5 hPa 3.9 m/s 1.8° 988.4 hPa 4.1 m/s
07:00 0.6° 987.0 hPa 4.0 m/s 3.2 mm 1.9° 984.2 hPa 5.2 m/s 11.8 mm 0.2° 987.2 hPa 4.1 m/s 2.1 mm 1.1° 986.4 hPa 3.0 m/s 0.0 mm 0.5° 987.9 hPa 4.1 m/s 2.0° 986.3 hPa 4.2 m/s
10:00 0.7° 986.8 hPa 3.4 m/s 3.5 mm 2.5° 983.7 hPa 4.0 m/s 13.9 mm 0.2° 986.9 hPa 3.1 m/s 1.1 mm 1.5° 986.0 hPa 2.8 m/s 0.0 mm 0.6° 987.7 hPa 3.8 m/s 2.1° 985.8 hPa 3.9 m/s
13:00 1.3° 985.5 hPa 3.1 m/s 3.4 mm 2.1° 983.1 hPa 4.9 m/s 14.9 mm 0.7° 985.2 hPa 2.8 m/s 0.8 mm 2.4° 985.2 hPa 2.9 m/s 0.0 mm 1.2° 986.6 hPa 3.0 m/s 1.5° 985.5 hPa 2.4 m/s
16:00 1.5° 985.1 hPa 3.1 m/s 2.6 mm 1.8° 981.5 hPa 3.2 m/s 15.5 mm 0.5° 984.6 hPa 2.8 m/s 0.5 mm 2.1° 984.5 hPa 2.5 m/s 0.0 mm 1.6° 986.0 hPa 3.7 m/s 1.3° 985.3 hPa 2.0 m/s
19:00 1.0° 984.2 hPa 3.0 m/s 4.1 mm 1.9° 979.1 hPa 4.5 m/s 17.7 mm 0.4° 984.1 hPa 1.9 m/s 0.4 mm 1.5° 983.0 hPa 2.7 m/s 0.0 mm 1.0° 985.1 hPa 3.1 m/s 0.9° 984.6 hPa 1.3 m/s
22:00 1.0° 983.7 hPa 2.6 m/s 4.1 mm 1.7° 977.6 hPa 4.0 m/s 23.3 mm 0.2° 983.3 hPa 1.6 m/s 1.2 mm 2.2° 982.1 hPa 2.6 m/s 0.0 mm 1.0° 985.0 hPa 2.9 m/s 0.8° 984.0 hPa 0.7 m/s
 09:03     14:46    Daglengte: 5:43 Zondag 15 Dec
01:00 1.4° 983.4 hPa 2.3 m/s 4.7 mm 1.4° 978.0 hPa 3.6 m/s 27.1 mm 0.5° 983.3 hPa 1.4 m/s 1.0 mm 2.6° 981.4 hPa 2.6 m/s 0.0 mm 1.5° 984.5 hPa 2.4 m/s 1.1° 983.8 hPa 1.1 m/s
04:00 1.3° 983.8 hPa 2.6 m/s 4.0 mm 1.4° 978.3 hPa 3.6 m/s 27.7 mm 0.6° 984.0 hPa 1.3 m/s 0.1 mm 2.1° 981.6 hPa 2.1 m/s 0.0 mm 1.4° 984.7 hPa 2.6 m/s 1.1° 984.2 hPa 1.4 m/s
07:00 1.3° 984.3 hPa 2.0 m/s 0.0 mm 1.8° 979.8 hPa 3.5 m/s 28.2 mm 0.4° 984.4 hPa 1.2 m/s 0.1 mm 1.5° 982.3 hPa 2.3 m/s 0.0 mm 1.5° 985.1 hPa 1.6 m/s 1.4° 985.1 hPa 2.1 m/s
10:00 1.1° 985.6 hPa 1.7 m/s 0.0 mm 2.3° 981.2 hPa 4.1 m/s 28.3 mm 0.5° 985.3 hPa 1.2 m/s 0.1 mm 1.2° 986.1 hPa 1.4 m/s 1.9° 986.3 hPa 2.4 m/s
13:00 0.7° 985.9 hPa 1.7 m/s 3.1 mm 1.7° 982.1 hPa 3.4 m/s 28.3 mm 0.1° 985.3 hPa 1.2 m/s 0.6 mm 0.7° 986.9 hPa 1.4 m/s 1.7° 987.5 hPa 2.7 m/s
16:00 1.0° 986.5 hPa 1.6 m/s 2.1 mm 1.3° 981.9 hPa 3.0 m/s 28.4 mm 0.2° 985.7 hPa 0.9 m/s 0.1 mm 1.0° 987.7 hPa 1.3 m/s 1.4° 986.6 hPa 1.7 m/s
19:00 0.2° 987.2 hPa 1.8 m/s 0.0 mm 0.8° 981.6 hPa 2.8 m/s 29.0 mm -0.4° 986.5 hPa 0.7 m/s 0.2 mm 0.1° 988.3 hPa 1.8 m/s 0.4° 986.1 hPa 2.2 m/s
22:00 0.3° 989.3 hPa 1.7 m/s 0.0 mm 0.3° 982.2 hPa 2.8 m/s 30.6 mm -0.5° 987.9 hPa 0.9 m/s 0.0 mm 0.9° 990.1 hPa 1.6 m/s 0.2° 986.7 hPa 1.6 m/s
 09:04     14:46    Daglengte: 5:42 Maandag 16 Dec
01:00 -0.1° 991.1 hPa 1.2 m/s 0.0 mm 0.4° 984.2 hPa 0.7 m/s 32.2 mm -1.1° 988.9 hPa 0.8 m/s 0.0 mm 0.1° 992.2 hPa 1.1 m/s 1.0° 987.6 hPa 1.0 m/s
04:00 0.6° 992.3 hPa 1.9 m/s 0.0 mm -0.5° 987.7 hPa 2.3 m/s 32.7 mm -1.2° 990.6 hPa 1.2 m/s 0.0 mm 0.9° 992.9 hPa 1.7 m/s 1.1° 990.3 hPa 2.5 m/s
07:00 0.6° 993.4 hPa 2.2 m/s 0.0 mm -1.8° 990.6 hPa 2.9 m/s 32.7 mm -1.5° 993.2 hPa 1.3 m/s 0.0 mm 1.7° 993.6 hPa 2.3 m/s 0.6° 993.3 hPa 3.6 m/s
10:00 0.5° 994.6 hPa 2.2 m/s 0.0 mm -0.8° 993.9 hPa 2.8 m/s 32.7 mm -1.2° 996.0 hPa 0.8 m/s 0.0 mm 1.9° 994.5 hPa 2.5 m/s -1.2° 997.0 hPa 2.3 m/s
13:00 0.9° 995.6 hPa 2.3 m/s 0.0 mm -1.9° 995.3 hPa 2.0 m/s 32.7 mm 0.3° 997.2 hPa 2.1 m/s 0.0 mm 2.0° 995.3 hPa 2.6 m/s 0.3° 999.2 hPa 2.7 m/s
16:00 1.5° 997.0 hPa 2.2 m/s 15.9 mm 1.7° 996.7 hPa 2.1 m/s -0.1° 1000.9 hPa 3.3 m/s 15.9 mm
19:00 1.4° 997.8 hPa 1.9 m/s 15.9 mm 1.5° 997.4 hPa 1.9 m/s -0.2° 1002.3 hPa 2.4 m/s 15.9 mm
22:00 1.1° 999.3 hPa 2.1 m/s 15.9 mm 1.0° 998.9 hPa 2.0 m/s 1.7° 1003.2 hPa 2.7 m/s 15.9 mm
 09:05     14:46    Daglengte: 5:41 Dinsdag 17 Dec
01:00 0.6° 1000.6 hPa 2.1 m/s 15.9 mm 0.5° 1000.4 hPa 2.1 m/s 2.2° 1003.1 hPa 1.7 m/s 15.9 mm
04:00 0.6° 1002.1 hPa 2.0 m/s 16.6 mm 0.5° 1002.0 hPa 2.1 m/s 2.1° 1002.6 hPa 1.4 m/s 16.6 mm
07:00 0.6° 1003.6 hPa 2.0 m/s 17.4 mm 0.5° 1003.7 hPa 2.1 m/s 2.2° 1001.9 hPa 1.1 m/s 17.4 mm
10:00 1.0° 1005.0 hPa 2.1 m/s 17.7 mm 0.8° 1005.2 hPa 2.2 m/s 2.1° 1002.3 hPa 0.7 m/s 17.7 mm
13:00 1.2° 1006.4 hPa 2.2 m/s 17.7 mm 1.2° 1006.8 hPa 2.3 m/s 1.7° 1001.9 hPa 0.9 m/s 17.7 mm
16:00 1.2° 1006.9 hPa 1.9 m/s 17.7 mm 1.2° 1007.3 hPa 2.0 m/s 1.1° 1002.1 hPa 0.4 m/s 17.7 mm
19:00 1.2° 1007.4 hPa 1.6 m/s 17.7 mm 1.2° 1007.9 hPa 1.7 m/s 0.8° 1001.8 hPa 0.3 m/s 17.7 mm
22:00 0.7° 1007.8 hPa 1.2 m/s 17.7 mm 0.7° 1008.3 hPa 1.2 m/s 0.5° 1002.0 hPa 0.1 m/s 17.7 mm
 09:06     14:46    Daglengte: 5:40 Woensdag 18 Dec
01:00 0.3° 1008.1 hPa 0.8 m/s 17.9 mm 0.2° 1008.7 hPa 0.8 m/s 1.4° 1001.8 hPa 0.5 m/s 17.9 mm
04:00 0.7° 1007.5 hPa 0.9 m/s 18.1 mm 0.7° 1008.0 hPa 0.9 m/s 1.8° 1002.1 hPa 0.9 m/s 18.1 mm
07:00 1.2° 1006.8 hPa 1.1 m/s 18.1 mm 1.1° 1007.2 hPa 1.0 m/s 2.0° 1002.9 hPa 1.8 m/s 18.1 mm
10:00 1.2° 1006.0 hPa 2.0 m/s 18.1 mm 1.3° 1006.2 hPa 1.9 m/s 0.6° 1004.4 hPa 2.5 m/s 18.1 mm
13:00 1.5° 1005.1 hPa 2.9 m/s 18.1 mm 1.5° 1005.1 hPa 2.8 m/s 2.0° 1004.9 hPa 3.4 m/s 18.1 mm
16:00 1.8° 1003.6 hPa 2.6 m/s 18.1 mm 2.0° 1003.4 hPa 2.6 m/s -0.3° 1005.9 hPa 2.5 m/s 18.1 mm
19:00 2.1° 1002.1 hPa 2.5 m/s 18.1 mm 2.5° 1001.6 hPa 2.5 m/s -1.8° 1007.4 hPa 2.0 m/s 18.1 mm
22:00 2.2° 1002.2 hPa 1.6 m/s 18.1 mm 2.6° 1001.5 hPa 1.6 m/s -3.0° 1009.6 hPa 1.3 m/s 18.1 mm
 09:06     14:47    Daglengte: 5:41 Donderdag 19 Dec
01:00 2.3° 1002.1 hPa 0.7 m/s 18.1 mm 2.8° 1001.4 hPa 0.7 m/s -3.5° 1010.2 hPa 1.0 m/s 18.1 mm
04:00 1.8° 1003.9 hPa 1.3 m/s 18.1 mm 2.3° 1003.3 hPa 1.4 m/s -3.5° 1010.9 hPa 0.7 m/s 18.1 mm
07:00 1.4° 1005.7 hPa 1.9 m/s 18.1 mm 1.8° 1005.2 hPa 2.0 m/s -3.5° 1011.6 hPa 1.1 m/s 18.1 mm
10:00 1.0° 1008.7 hPa 2.2 m/s 18.1 mm 1.4° 1008.3 hPa 2.2 m/s -3.2° 1012.8 hPa 1.2 m/s 18.1 mm
13:00 0.7° 1011.6 hPa 2.4 m/s 18.1 mm 1.0° 1011.4 hPa 2.5 m/s -2.3° 1013.5 hPa 1.1 m/s 18.1 mm
16:00 -0.1° 1012.5 hPa 2.0 m/s 18.1 mm 0.2° 1012.3 hPa 2.0 m/s -3.2° 1014.4 hPa 1.2 m/s 18.1 mm
19:00 -0.9° 1013.4 hPa 1.6 m/s 18.1 mm -0.7° 1013.2 hPa 1.6 m/s -3.3° 1015.3 hPa 1.2 m/s 18.1 mm
22:00 -1.0° 1013.8 hPa 1.3 m/s 18.1 mm -0.8° 1013.7 hPa 1.4 m/s -3.2° 1015.7 hPa 1.1 m/s 18.1 mm
 09:07     14:47    Daglengte: 5:40 Vrijdag 20 Dec
01:00 -1.2° 1014.2 hPa 1.1 m/s 18.1 mm -1.0° 1014.1 hPa 1.1 m/s -3.1° 1015.8 hPa 1.3 m/s 18.1 mm
04:00 -0.6° 1013.5 hPa 1.3 m/s 18.1 mm -0.3° 1013.3 hPa 1.3 m/s -3.4° 1015.8 hPa 1.3 m/s 18.1 mm
07:00 0.1° 1012.8 hPa 1.5 m/s 18.1 mm 0.4° 1012.5 hPa 1.5 m/s -3.6° 1016.4 hPa 1.2 m/s 18.1 mm
10:00 0.6° 1012.2 hPa 1.6 m/s 18.1 mm 1.0° 1011.8 hPa 1.6 m/s -3.6° 1017.1 hPa 1.2 m/s 18.1 mm
13:00 1.2° 1011.7 hPa 1.7 m/s 18.1 mm 1.6° 1011.1 hPa 1.7 m/s -2.7° 1017.9 hPa 1.2 m/s 18.1 mm
19:00 1.2° 1010.3 hPa 1.6 m/s 18.1 mm 1.8° 1009.4 hPa 1.6 m/s -5.2° 1020.7 hPa 1.6 m/s 18.1 mm
 09:08     14:47    Daglengte: 5:39 Zaterdag 21 Dec
01:00 1.1° 1009.2 hPa 1.5 m/s 18.1 mm 1.8° 1008.0 hPa 1.5 m/s -7.0° 1022.6 hPa 1.3 m/s 18.1 mm
07:00 1.4° 1005.6 hPa 1.8 m/s 18.1 mm 2.2° 1004.0 hPa 1.9 m/s -7.9° 1023.1 hPa 0.9 m/s 18.1 mm
13:00 2.2° 1004.1 hPa 2.0 m/s 18.1 mm 3.0° 1002.3 hPa 2.1 m/s -6.6° 1023.5 hPa 0.6 m/s 18.1 mm
19:00 2.0° 1003.4 hPa 1.7 m/s 18.1 mm 2.9° 1001.5 hPa 1.8 m/s -7.6° 1024.0 hPa 0.9 m/s 18.1 mm
 09:08     14:48    Daglengte: 5:40 Zondag 22 Dec
01:00 1.6° 1003.0 hPa 1.3 m/s 18.1 mm 2.4° 1001.0 hPa 1.3 m/s -7.4° 1025.6 hPa 1.3 m/s 18.1 mm
07:00 2.0° 1001.6 hPa 1.7 m/s 18.2 mm 2.8° 999.4 hPa 1.7 m/s -7.1° 1025.6 hPa 1.3 m/s 18.2 mm
13:00 2.7° 1001.6 hPa 1.9 m/s 18.4 mm 3.4° 999.4 hPa 1.9 m/s -5.0° 1025.9 hPa 2.5 m/s 18.4 mm
19:00 2.7° 998.7 hPa 1.5 m/s 18.4 mm 3.4° 996.2 hPa 1.5 m/s -5.6° 1026.5 hPa 1.9 m/s 18.4 mm
 09:08     14:49    Daglengte: 5:41 Maandag 23 Dec
01:00 -5.6° 1026.7 hPa 0.9 m/s 18.4 mm -5.6° 1026.7 hPa 0.9 m/s 18.4 mm
07:00 -6.4° 1026.0 hPa 1.4 m/s 18.4 mm -6.4° 1026.0 hPa 1.4 m/s 18.4 mm
13:00 -0.1° 998.4 hPa 0.4 m/s 1.3 mm
19:00 -1.1° 998.6 hPa 0.1 m/s 1.0 mm
 09:09     14:49    Daglengte: 5:40 Dinsdag 24 Dec
01:00 -1.6° 998.9 hPa 0.3 m/s 0.9 mm
07:00 -2.0° 999.5 hPa 0.6 m/s 0.6 mm
13:00 -1.9° 1001.2 hPa 0.3 m/s 0.4 mm
19:00 -2.5° 1002.3 hPa 0.2 m/s 0.8 mm
 09:09     14:50    Daglengte: 5:41 Woensdag 25 Dec
01:00 -2.5° 1002.7 hPa 0.5 m/s 0.8 mm
07:00 -2.3° 1002.5 hPa 0.4 m/s 0.0 mm
13:00 -1.8° 1002.7 hPa 0.5 m/s 0.8 mm
19:00 -2.5° 1003.5 hPa 1.1 m/s 0.8 mm
 09:09     14:51    Daglengte: 5:42 Donderdag 26 Dec
01:00 -2.8° 1004.8 hPa 1.4 m/s 0.8 mm
07:00 -3.3° 1005.5 hPa 1.6 m/s 0.8 mm
13:00 -3.0° 1007.0 hPa 1.4 m/s 1.3 mm
19:00 -3.7° 1007.1 hPa 1.1 m/s 0.2 mm
 09:09     14:52    Daglengte: 5:43 Vrijdag 27 Dec
01:00 -3.6° 1007.1 hPa 0.5 m/s 1.0 mm
07:00 -3.4° 1006.5 hPa 0.2 m/s 0.2 mm
13:00 -3.0° 1007.2 hPa 0.4 m/s 0.7 mm
19:00 -4.2° 1008.0 hPa 0.7 m/s 0.7 mm
 09:09     14:53    Daglengte: 5:44 Zaterdag 28 Dec
01:00 -4.4° 1009.0 hPa 0.9 m/s 0.4 mm
07:00 -5.0° 1009.1 hPa 0.5 m/s 0.3 mm
13:00 -4.2° 1009.4 hPa 0.3 m/s 0.4 mm
FMI Hirlam - 7.5 km EWN WRFDA - 12 km DWD ICON - 7 km GFS - 25 km Basiskaart






























































Updatetijd (Europe/Brussels) Resolutie Lengte Stap
FMI Hirlam 12:15, 18:15, 00:15, 06:15 7.5 km 49h 1h
EWN WRFDA 14:15, 20:15, 02:15, 08:15 12 km 73h 1h
DWD ICON 10:45, 16:45, 22:45, 04:45 7 km 75h 1h
GFS 13:30, 19:30, 01:30, 07:30 25 km 237h 3h
30+ mm
25-30 mm
20-25 mm
15-20 mm
10-15 mm
6-10 mm
4-6 mm
2-4 mm
1-2 mm
0.5-1 mm
0.2-0.5 mm
0.1-0.2 mm
30+ mm
25-30 mm
20-25 mm
15-20 mm
10-15 mm
6-10 mm
4-6 mm
2-4 mm
1-2 mm
0.5-1 mm
0.2-0.5 mm
0.1-0.2 mm
Sneeuwval
Natte sneeuw
Hagel
Vorst
30+ mm
25-30 mm
20-25 mm
15-20 mm
10-15 mm
6-10 mm
4-6 mm
2-4 mm
1-2 mm
0.5-1 mm
0.2-0.5 mm
0.1-0.2 mm
Sneeuwval
Natte sneeuw
Hagel
Vorst
Onweer
50 mm
40 mm
30 mm
26 mm
22 mm
18 mm
14 mm
10 mm
9 mm
8 mm
7 mm
6 mm
5 mm
4.5 mm
4 mm
3.5 mm
3 mm
2.5 mm
2 mm
1.5 mm
1 mm
0.8 mm
0.6 mm
0.4 mm
0.2 mm
0.05 mm
35°
30°
25°
20°
15°
10°
-5°
-10°
-15°
-20°
-25°
-30°
-35°
33> m/s
29 m/s
25 m/s
21 m/s
17 m/s
14 m/s
11 m/s
8 m/s
5 m/s
3 m/s
0 m/s
2600 J/kg
2400 J/kg
2200 J/kg
2000 J/kg
1800 J/kg
1600 J/kg
1400 J/kg
1200 J/kg
1000 J/kg
800 J/kg
600 J/kg
400 J/kg
200 J/kg
70 dBZ
65 dBZ
60 dBZ
55 dBZ
50 dBZ
45 dBZ
40 dBZ
35 dBZ
30 dBZ
25 dBZ
20 dBZ
15 dBZ
10 dBZ
5 dBZ
-1 K
-2 K
-3 K
-4 K
-5 K
-6 K
-7 K
-8 K
-9 K
950 m²/s²
900 m²/s²
850 m²/s²
800 m²/s²
750 m²/s²
700 m²/s²
650 m²/s²
600 m²/s²
550 m²/s²
500 m²/s²
450 m²/s²
400 m²/s²
350 m²/s²
300 m²/s²
250 m²/s²
200 m²/s²
150 m²/s²
100 m²/s²
46 m/s
44 m/s
42 m/s
40 m/s
38 m/s
36 m/s
34 m/s
32 m/s
30 m/s
28 m/s
26 m/s
24 m/s
22 m/s
20 m/s
16 m/s
12 m/s
8 m/s
4 m/s
30 m/s
28 m/s
26 m/s
24 m/s
22 m/s
20 m/s
18 m/s
16 m/s
14 m/s
12 m/s
10 m/s
8 m/s
6 m/s
4 m/s
2 m/s
3.0
2.8
2.6
2.4
2.2
2.0
1.8
1.6
1.4
1.2
1.0
0.8
0.6
0.4
0.2
15
14
13
12
11
10
9
8
7
6
5
4
3
2
1
90%
80%
70%
60%
50%
40%
30%
20%
10%
42
40
38
36
34
32
30
28
26
24
22
20
18
16
14
12
90+ cm
80-90 cm
70-80 cm
60-70 cm
50-60 cm
40-50 cm
30-40 cm
20-30 cm
10-20 cm
1-10 cm
Sneeuwval
Natte sneeuw
Regen
>120 mm
115 mm
110 mm
105 mm
100 mm
95 mm
90 mm
85 mm
80 mm
75 mm
70 mm
65 mm
60 mm
55 mm
50 mm
45 mm
45 mm
40 mm
35 mm
30 mm
25 mm
20 mm
15 mm
10 mm
5 mm
0.1 mm
960 hPa
880 hPa
800 hPa
720 hPa
640 hPa
560 hPa
584 gpdm
568 gpdm
552 gpdm
536 gpdm
520 gpdm
504 gpdm
488 gpdm
Extreem zwaar Noodweer Kans op onweer
15% 15% 5% 50% 15%

Dag




Kaart






35°
30°
25°
20°
15°
10°
-5°
-10°
-15°
-20°
-25°
-30°
-35°
33> m/s
29 m/s
25 m/s
21 m/s
17 m/s
14 m/s
11 m/s
8 m/s
5 m/s
3 m/s
0 m/s
Extreem zwaar Noodweer Kans op onweer
15% 15% 5% 50% 15%
>120 mm
115 mm
110 mm
105 mm
100 mm
95 mm
90 mm
85 mm
80 mm
75 mm
70 mm
65 mm
60 mm
55 mm
50 mm
45 mm
45 mm
40 mm
35 mm
30 mm
25 mm
20 mm
15 mm
10 mm
5 mm
0.1 mm
Onweer risico kaarten - De groene en gele kleur geeft de kans op onweer aan binnen 40 km van een punt. Oranje, rood en violet hebben hetzelfde niveau zoals je het ziet op estofex.org waaronder ook de kans op hagel en supercells.

dBZ - dBZ staat voor decibel ten opzichte van Z.

Cape - Convective available potential energy (CAPE), is de totale hoeveelheid energie die een luchtpakketje nodig heeft om zover mogelijk te stijgen in de atmosfeer.

K Index - K-Index wordt berekend door de Vertical Totals (VT) en het verschil tussen de 850 hPa temperatuur en de 700 hPa dauwpuntsdepressie (Tdd 700) bij elkaar op te tellen.

TT Index - Convectie index wordt gebruikt voor het voorspellen van zware buien of onweer.

WRF - The Weather Research and Forecasting (WRF) is een volgende generatie mesoscale numeriek weersvoorspelling systeem ontworpen om zowel de operationele planning als het atmosferisch onderzoek te dienen. WRF is a cooperatie tussen het National Center for Atmospheric Research (NCAR), National Centers for Environmental Prediction (NCEP), Forecast Systems Laboratory (FSL), Air Force Weather Agency (AFWA), Naval Research Laboratory, University of Oklahoma, en de Federal Aviation Administration (FAA). Deze software draait op onze server.

WRFDA - Een meer geavanceerde versie van WRF

Arome - Het 2.5 km Arome model. Verzorgd door het Noors Meteorologisch Instituut.

MET Norway - De proff-default 4km meteorological data is een beste keus selectie van meteorologische modellen gebruikt door met.no die zijn geïnterpoleerd tot een gemeenschappelijke dataset. Verzorgd door het Noorse Meteorologisch Instituut.

SMHI - Het Hirlam model verzorgd door het Zweeds meteorologisch instituut.

FMI - Het Hirlam model verzorgd door het Fins meteorologisch instituut. Dekking alleen Finland.

GFS - Het Global Forecast Systeem (GFS) is een wereldwijd numerieke weersvoorspelling computermodel, gerund door NOAA.

GEM-GDPS - Het GEM-GDPS is a wereldwijd numeriek weersvoorspelling computermodel verzorgd door het Canadees Meteorologisch Centrum.

Credits/Info: Dank aan Stefan Gofferje van sääkeskus.fi voor enkele formules van GrADS. Info: Wikipedia.

Betrouwbaarheid van de verwachting

NB! 2015-03-29: Rebuilding the accuracy-test!

EWNACC
Day 1 Good forecasts

Dag 1 Tmax

Dag 2 Tmax

Geladen verwachtingen TOP 50

Totaal geladen verwachtingen:
Plaats Latitude Longitude Verwachtingen Plaats Latitude Longitude Verwachtingen